Weather History for Alturas, CA

Change the Weather History Date:

Thursday, April 3, 2014

  Actual Average Record
Temperature  
Mean Temperature 37 °F 40 °F  
Max Temperature 51 °F 55 °F 80 °F (2000)
Min Temperature 23 °F 26 °F 15 °F (1945)
Degree Days  
Heating Degree Days 28 25  
Month to date heating degree days 81 75  
Since 1 July heating degree days 5590 5767  
Cooling Degree Days 0 0  
Month to date cooling degree days 0 0  
Year to date cooling degree days 0 0  
Moisture  
Dew Point 28 °F    
Average Humidity 66    
Maximum Humidity 96    
Minimum Humidity 36    
Precipitation  
Precipitation 0.01 in 0.05 in 0.42 in (1987)
Month to date precipitation 0.01 0.14  
Year to date precipitation 3.77 4.76  
Sea Level Pressure  
Sea Level Pressure 30.03 in    
Wind  
Wind Speed 5 mph (SW)    
Max Wind Speed 26 mph    
Max Gust Speed 33 mph    
Visibility 9 miles    
Events Rain    
T = Trace of Precipitation, MM = Missing Value Source: NWS Daily Summary

Daily Weather History Graph

Daily Weather History Graph

Search for Another Location

Airport:

Trip Planner

Search our weather history database for the weather conditions in past years. The results will help you decide how hot, cold, wet, or windy it might be!

Date:

Astronomy

Apr. 03, 2014 Rise Set
Actual Time 6:41 AM PDT 7:29 PM PDT
Civil Twilight 6:13 AM PDT 7:57 PM PDT
Nautical Twilight 5:40 AM PDT 8:31 PM PDT
Astronomical Twilight 5:06 AM PDT 9:05 PM PDT
Moon 9:12 AM PDT (4/3) 11:56 PM PDT (4/3)
Length of Visible Light 13h 44m
Length of Day
12h 48m
Waxing Crescent, 18% of the Moon is Illuminated
Apr 3
Waxing Crescent
Apr 7
First Quarter
Apr 15
Full
Apr 22
Last Quarter
Apr 28
New

Hourly Weather History & Observations

Time (PDT) Temp. Windchill Dew Point Humidity Pressure Visibility Wind Dir Wind Speed Gust Speed Precip Events Conditions
12:55 AM 28.0 °F - 25.0 °F 88% 30.06 in 7.0 mi Calm Calm - N/A   Clear
1:55 AM 27.0 °F - 25.0 °F 92% 30.06 in 10.0 mi Calm Calm - N/A   Clear
2:55 AM 26.1 °F 21.9 °F 24.1 °F 92% 30.06 in 7.0 mi East 3.5 mph - N/A   Clear
3:55 AM 24.1 °F - 21.9 °F 91% 30.05 in 9.0 mi Calm Calm - N/A   Clear
4:55 AM 26.1 °F - 23.0 °F 88% 30.05 in 8.0 mi Calm Calm - N/A   Clear
5:55 AM 23.0 °F - 21.9 °F 96% 30.07 in 7.0 mi Calm Calm - N/A   Clear
6:55 AM 26.1 °F 19.4 °F 23.0 °F 88% 30.06 in 5.0 mi East 5.8 mph - N/A   Clear
7:55 AM 30.0 °F - 28.0 °F 92% 30.08 in 10.0 mi Calm Calm - N/A   Clear
8:55 AM 36.0 °F - 30.0 °F 79% 30.08 in 10.0 mi Calm Calm - N/A   Clear
9:55 AM 39.9 °F - 32.0 °F 73% 30.06 in 10.0 mi Calm Calm - N/A   Clear
10:55 AM 46.9 °F - 32.0 °F 56% 30.04 in 10.0 mi Variable 5.8 mph - N/A   Clear
11:55 AM 50.0 °F - 24.1 °F 36% 30.02 in 10.0 mi South 8.1 mph 21.9 mph N/A   Partly Cloudy
12:55 PM 48.9 °F - 23.0 °F 36% 30.02 in 10.0 mi SW 6.9 mph - N/A   Mostly Cloudy
1:55 PM 50.0 °F - 24.1 °F 36% 30.00 in 10.0 mi SSW 5.8 mph - N/A   Overcast
2:55 PM 45.0 °F 36.4 °F 28.9 °F 53% 30.02 in 10.0 mi WSW 23.0 mph 31.1 mph N/A   Overcast
3:55 PM 44.1 °F 37.1 °F 33.1 °F 65% 30.03 in 10.0 mi WNW 15.0 mph - 0.00 in   Overcast
4:55 PM 45.0 °F 39.7 °F 30.0 °F 56% 30.01 in 10.0 mi West 10.4 mph - N/A   Overcast
5:55 PM 41.0 °F 32.8 °F 30.9 °F 67% 30.02 in 10.0 mi West 16.1 mph - N/A   Overcast
6:55 PM 39.0 °F 31.4 °F 33.1 °F 79% 30.04 in 10.0 mi West 12.7 mph - N/A   Overcast
8:55 PM 37.9 °F - 32.0 °F 79% 30.02 in 10.0 mi Calm Calm - N/A   Overcast
9:55 PM 37.9 °F - 33.1 °F 83% 30.02 in 9.0 mi Calm Calm - 0.00 in Rain Light Rain
10:03 PM 37.9 °F - 33.1 °F 83% 30.00 in 9.0 mi Calm Calm - 0.01 in Rain Light Rain
10:11 PM 37.0 °F 34.5 °F 33.1 °F 86% 30.00 in 10.0 mi ENE 3.5 mph - 0.01 in Rain Light Rain
10:55 PM 37.0 °F - 33.1 °F 86% 30.00 in 7.0 mi Calm Calm - 0.01 in   Overcast
11:55 PM 35.1 °F - 32.0 °F 89% 29.99 in 10.0 mi Calm Calm - N/A   Mostly Cloudy